Time,TemperatureF,DewpointF,PressureIn,WindDirection,WindDirectionDegrees,WindSpeedMPH,WindSpeedGustMPH,Humidity,HourlyPrecipIn,Conditions,Clouds,dailyrainin,SoftwareType,DateUTC
2013-08-02 00:00:00,66.3,63.9,29.83,SSE,168,2.0,5.0,92,0.00,RA,,0.00,WeatherDisplay:10.37,2013-08-02 04:00:00,
2013-08-02 00:10:00,66.3,63.9,29.83,South,175,2.0,6.0,92,0.00,OVC,,0.00,WeatherDisplay:10.37,2013-08-02 04:10:00,
2013-08-02 00:30:00,66.3,63.9,29.82,SSE,163,1.0,5.0,92,0.00,OVC,,0.00,WeatherDisplay:10.37,2013-08-02 04:30:00,
2013-08-02 00:40:00,66.2,63.8,29.82,SSE,163,0.0,2.0,92,0.00,OVC,,0.00,WeatherDisplay:10.37,2013-08-02 04:40:00,
2013-08-02 00:50:00,66.1,64.0,29.82,SSE,163,1.0,3.0,93,0.00,OVC,,0.00,WeatherDisplay:10.37,2013-08-02 04:50:00,
2013-08-02 01:00:00,66.0,63.9,29.81,South,169,0.0,5.0,93,0.00,OVC,,0.00,WeatherDisplay:10.37,2013-08-02 05:00:00,
2013-08-02 01:10:00,65.9,63.8,29.81,South,170,0.0,2.0,93,0.00,OVC,,0.00,WeatherDisplay:10.37,2013-08-02 05:10:00,
2013-08-02 01:20:00,65.8,63.7,29.81,South,170,0.0,0.0,93,0.00,OVC,,0.00,WeatherDisplay:10.37,2013-08-02 05:20:00,
2013-08-02 01:30:00,65.9,63.8,29.81,South,171,0.0,2.0,93,0.00,OVC,,0.00,WeatherDisplay:10.37,2013-08-02 05:30:00,
2013-08-02 01:40:00,65.9,64.1,29.81,South,172,0.0,5.0,94,0.00,OVC,,0.00,WeatherDisplay:10.37,2013-08-02 05:40:00,
2013-08-02 01:50:00,65.9,63.8,29.81,South,172,0.0,0.0,93,0.00,OVC,,0.00,WeatherDisplay:10.37,2013-08-02 05:50:00,
2013-08-02 02:00:00,65.8,63.7,29.80,South,172,0.0,0.0,93,0.00,OVC,,0.00,WeatherDisplay:10.37,2013-08-02 06:00:00,
2013-08-02 02:10:00,65.8,64.0,29.80,South,172,0.0,0.0,94,0.00,OVC,,0.00,WeatherDisplay:10.37,2013-08-02 06:10:00,
2013-08-02 02:20:00,65.6,63.8,29.80,South,172,0.0,0.0,94,0.00,OVC,,0.00,WeatherDisplay:10.37,2013-08-02 06:20:00,
2013-08-02 02:30:00,65.5,63.7,29.80,South,172,0.0,0.0,94,0.00,OVC,,0.00,WeatherDisplay:10.37,2013-08-02 06:30:00,
2013-08-02 02:40:00,65.4,63.6,29.80,South,172,0.0,0.0,94,0.00,OVC,,0.00,WeatherDisplay:10.37,2013-08-02 06:40:00,
2013-08-02 02:50:00,65.3,63.5,29.81,South,172,0.0,2.0,94,0.00,OVC,,0.00,WeatherDisplay:10.37,2013-08-02 06:50:00,
2013-08-02 03:00:00,65.3,63.5,29.81,South,172,0.0,3.0,94,0.00,OVC,,0.00,WeatherDisplay:10.37,2013-08-02 07:00:00,
2013-08-02 03:10:00,65.1,63.3,29.80,South,172,0.0,0.0,94,0.00,OVC,,0.00,WeatherDisplay:10.37,2013-08-02 07:10:00,
2013-08-02 03:20:00,65.1,63.6,29.80,South,172,0.0,0.0,95,0.00,OVC,,0.00,WeatherDisplay:10.37,2013-08-02 07:20:00,
2013-08-02 03:30:00,64.9,63.4,29.80,South,172,0.0,0.0,95,0.00,OVC,,0.00,WeatherDisplay:10.37,2013-08-02 07:30:00,
2013-08-02 03:40:00,64.6,63.1,29.80,South,172,0.0,0.0,95,0.00,OVC,,0.00,WeatherDisplay:10.37,2013-08-02 07:40:00,
2013-08-02 03:50:00,64.4,62.9,29.80,South,172,0.0,0.0,95,0.00,OVC,,0.00,WeatherDisplay:10.37,2013-08-02 07:50:00,
2013-08-02 04:00:00,64.1,62.6,29.79,South,172,0.0,0.0,95,0.00,OVC,,0.00,WeatherDisplay:10.37,2013-08-02 08:00:00,
2013-08-02 04:10:00,63.7,62.2,29.80,South,172,0.0,0.0,95,0.00,BKN,,0.00,WeatherDisplay:10.37,2013-08-02 08:10:00,
2013-08-02 04:20:00,63.4,61.9,29.80,South,172,0.0,0.0,95,0.00,BKN,,0.00,WeatherDisplay:10.37,2013-08-02 08:20:00,
2013-08-02 04:30:00,62.9,61.4,29.80,South,172,0.0,0.0,95,0.00,BKN,,0.00,WeatherDisplay:10.37,2013-08-02 08:30:00,
2013-08-02 04:40:00,62.6,61.1,29.80,South,172,0.0,2.0,95,0.00,BKN,,0.00,WeatherDisplay:10.37,2013-08-02 08:40:00,
2013-08-02 04:50:00,62.5,61.1,29.81,South,172,0.0,2.0,95,0.00,BKN,,0.00,WeatherDisplay:10.37,2013-08-02 08:50:00,
2013-08-02 05:00:00,62.4,61.0,29.81,South,172,0.0,0.0,95,0.00,BKN,,0.00,WeatherDisplay:10.37,2013-08-02 09:00:00,
2013-08-02 05:10:00,62.2,60.8,29.81,South,172,0.0,0.0,95,0.00,SCT,,0.00,WeatherDisplay:10.37,2013-08-02 09:10:00,
2013-08-02 05:20:00,61.7,60.3,29.81,South,172,0.0,0.0,95,0.00,SCT,,0.00,WeatherDisplay:10.37,2013-08-02 09:20:00,
2013-08-02 05:30:00,61.6,60.4,29.82,South,172,0.0,0.0,96,0.00,SCT,,0.00,WeatherDisplay:10.37,2013-08-02 09:30:00,
2013-08-02 05:40:00,61.2,59.8,29.82,South,172,0.0,0.0,95,0.00,SCT,,0.00,WeatherDisplay:10.37,2013-08-02 09:40:00,
2013-08-02 05:50:00,61.4,60.0,29.82,South,172,0.0,2.0,95,0.00,SCT,,0.00,WeatherDisplay:10.37,2013-08-02 09:50:00,
2013-08-02 06:00:00,60.9,59.5,29.83,South,172,0.0,0.0,95,0.00,SCT,,0.00,WeatherDisplay:10.37,2013-08-02 10:00:00,
2013-08-02 06:10:00,60.9,59.5,29.83,South,172,0.0,0.0,95,0.00,SCT,,0.00,WeatherDisplay:10.37,2013-08-02 10:10:00,
2013-08-02 06:20:00,60.7,59.3,29.83,South,172,0.0,0.0,95,0.00,SCT,,0.00,WeatherDisplay:10.37,2013-08-02 10:20:00,
2013-08-02 06:30:00,60.9,59.8,29.84,South,172,0.0,0.0,96,0.00,SCT,,0.00,WeatherDisplay:10.37,2013-08-02 10:30:00,
2013-08-02 06:40:00,61.4,60.3,29.84,South,172,0.0,0.0,96,0.00,SCT,,0.00,WeatherDisplay:10.37,2013-08-02 10:40:00,
2013-08-02 06:50:00,62.1,60.9,29.84,South,172,0.0,0.0,96,0.00,SCT,,0.00,WeatherDisplay:10.37,2013-08-02 10:50:00,
2013-08-02 07:00:00,63.3,62.1,29.84,South,172,0.0,0.0,96,0.00,SCT,,0.00,WeatherDisplay:10.37,2013-08-02 11:00:00,
2013-08-02 07:10:00,64.4,63.2,29.84,South,172,0.0,0.0,96,0.00,FEW,,0.00,WeatherDisplay:10.37,2013-08-02 11:10:00,
2013-08-02 07:20:00,65.2,63.1,29.84,South,172,1.0,3.0,93,0.00,FEW,,0.00,WeatherDisplay:10.37,2013-08-02 11:20:00,
2013-08-02 07:30:00,66.3,63.3,29.84,South,172,0.0,0.0,90,0.00,FEW,,0.00,WeatherDisplay:10.37,2013-08-02 11:30:00,
2013-08-02 07:40:00,66.6,62.9,29.84,South,172,0.0,2.0,88,0.00,FEW,,0.00,WeatherDisplay:10.37,2013-08-02 11:40:00,
2013-08-02 07:50:00,67.8,63.5,29.84,NNW,332,0.0,5.0,86,0.00,FEW,,0.00,WeatherDisplay:10.37,2013-08-02 11:50:00,
2013-08-02 08:00:00,68.3,63.3,29.84,NW,311,1.0,5.0,84,0.00,FEW,,0.00,WeatherDisplay:10.37,2013-08-02 12:00:00,
2013-08-02 08:10:00,68.4,63.7,29.85,West,275,2.0,5.0,85,0.00,SCT,,0.00,WeatherDisplay:10.37,2013-08-02 12:10:00,
2013-08-02 08:20:00,68.7,63.3,29.85,WSW,248,0.0,8.0,83,0.00,SCT,,0.00,WeatherDisplay:10.37,2013-08-02 12:20:00,
2013-08-02 08:30:00,69.1,63.4,29.86,WSW,254,1.0,8.0,82,0.00,SCT,,0.00,WeatherDisplay:10.37,2013-08-02 12:30:00,
2013-08-02 08:40:00,70.0,63.6,29.86,SW,235,2.0,8.0,80,0.00,SCT,,0.00,WeatherDisplay:10.37,2013-08-02 12:40:00,
2013-08-02 08:50:00,70.6,64.1,29.85,WNW,287,1.0,9.0,80,0.00,SCT,,0.00,WeatherDisplay:10.37,2013-08-02 12:50:00,
2013-08-02 09:00:00,70.6,63.4,29.85,NW,311,0.0,9.0,78,0.00,BKN,,0.00,WeatherDisplay:10.37,2013-08-02 13:00:00,
2013-08-02 09:10:00,70.3,63.2,29.86,WSW,250,3.0,10.0,78,0.00,BKN,,0.00,WeatherDisplay:10.37,2013-08-02 13:10:00,
2013-08-02 09:20:00,70.7,64.3,29.86,WNW,282,3.0,9.0,80,0.00,BKN,,0.00,WeatherDisplay:10.37,2013-08-02 13:20:00,
2013-08-02 09:30:00,71.3,64.4,29.86,WNW,299,0.0,8.0,79,0.00,BKN,,0.00,WeatherDisplay:10.37,2013-08-02 13:30:00,
2013-08-02 09:40:00,71.7,65.2,29.85,WNW,286,0.0,3.0,80,0.00,BKN,,0.00,WeatherDisplay:10.37,2013-08-02 13:40:00,
2013-08-02 09:50:00,71.7,64.4,29.86,WNW,287,3.0,10.0,78,0.00,BKN,,0.00,WeatherDisplay:10.37,2013-08-02 13:50:00,
2013-08-02 10:00:00,72.7,63.5,29.85,NW,323,3.0,10.0,73,0.00,SCT,,0.00,WeatherDisplay:10.37,2013-08-02 14:00:00,
2013-08-02 10:10:00,73.5,64.3,29.85,WNW,290,2.0,10.0,73,0.00,SCT,,0.00,WeatherDisplay:10.37,2013-08-02 14:10:00,
2013-08-02 10:20:00,73.0,62.6,29.85,West,274,5.0,9.0,70,0.00,SCT,,0.00,WeatherDisplay:10.37,2013-08-02 14:20:00,
2013-08-02 10:30:00,73.4,63.4,29.86,WNW,302,5.0,8.0,71,0.00,SCT,,0.00,WeatherDisplay:10.37,2013-08-02 14:30:00,
2013-08-02 10:40:00,74.0,62.3,29.86,West,276,7.0,10.0,67,0.00,SCT,,0.00,WeatherDisplay:10.37,2013-08-02 14:40:00,
2013-08-02 10:50:00,74.8,61.8,29.86,WNW,283,12.0,14.0,64,0.00,SCT,,0.00,WeatherDisplay:10.37,2013-08-02 14:50:00,
2013-08-02 11:00:00,75.5,62.5,29.86,West,275,9.0,14.0,64,0.00,SCT,,0.00,WeatherDisplay:10.37,2013-08-02 15:00:00,
2013-08-02 11:10:00,74.8,61.8,29.86,WSW,252,1.0,12.0,64,0.00,SCT,,0.00,WeatherDisplay:10.37,2013-08-02 15:10:00,
2013-08-02 11:20:00,75.9,61.9,29.86,WNW,289,3.0,10.0,62,0.00,SCT,,0.00,WeatherDisplay:10.37,2013-08-02 15:20:00,
2013-08-02 11:30:00,76.2,62.7,29.86,NW,312,6.0,10.0,63,0.00,SCT,,0.00,WeatherDisplay:10.37,2013-08-02 15:30:00,
2013-08-02 11:40:00,75.6,61.7,29.85,WNW,285,7.0,12.0,62,0.00,SCT,,0.00,WeatherDisplay:10.37,2013-08-02 15:40:00,
2013-08-02 11:50:00,75.5,61.1,29.85,NW,318,12.0,12.0,61,0.00,SCT,,0.00,WeatherDisplay:10.37,2013-08-02 15:50:00,
2013-08-02 12:00:00,75.1,61.2,29.85,WNW,295,6.0,12.0,62,0.00,SCT,,0.00,WeatherDisplay:10.37,2013-08-02 16:00:00,
2013-08-02 12:10:00,76.6,60.3,29.85,NW,308,3.0,10.0,57,0.00,SCT,,0.00,WeatherDisplay:10.37,2013-08-02 16:10:00,
2013-08-02 12:20:00,76.9,59.0,29.85,WSW,253,9.0,12.0,54,0.00,SCT,,0.00,WeatherDisplay:10.37,2013-08-02 16:20:00,
2013-08-02 12:30:00,77.2,59.3,29.85,WNW,282,9.0,16.0,54,0.00,SCT,,0.00,WeatherDisplay:10.37,2013-08-02 16:30:00,
2013-08-02 12:40:00,77.8,59.3,29.84,WNW,282,9.0,14.0,53,0.00,SCT,,0.00,WeatherDisplay:10.37,2013-08-02 16:40:00,
2013-08-02 12:50:00,77.6,59.7,29.83,WNW,286,8.0,9.0,54,0.00,SCT,,0.00,WeatherDisplay:10.37,2013-08-02 16:50:00,
2013-08-02 13:00:00,77.9,59.9,29.83,West,271,0.0,10.0,54,0.00,SCT,,0.00,WeatherDisplay:10.37,2013-08-02 17:00:00,
2013-08-02 13:10:00,78.4,59.8,29.83,SW,229,3.0,12.0,53,0.00,BKN,,0.00,WeatherDisplay:10.37,2013-08-02 17:10:00,
2013-08-02 13:20:00,79.3,59.6,29.83,WNW,286,7.0,16.0,51,0.00,BKN,,0.00,WeatherDisplay:10.37,2013-08-02 17:20:00,
2013-08-02 13:30:00,78.1,60.1,29.83,WNW,290,10.0,10.0,54,0.00,BKN,,0.00,WeatherDisplay:10.37,2013-08-02 17:30:00,
2013-08-02 13:40:00,79.2,61.1,29.83,NNW,339,10.0,14.0,54,0.00,BKN,,0.00,WeatherDisplay:10.37,2013-08-02 17:40:00,
2013-08-02 13:50:00,78.5,59.9,29.83,NW,315,8.0,14.0,53,0.00,BKN,,0.00,WeatherDisplay:10.37,2013-08-02 17:50:00,
2013-08-02 14:00:00,78.7,61.2,29.83,WNW,298,7.0,15.0,55,0.00,BKN,,0.00,WeatherDisplay:10.37,2013-08-02 18:00:00,
2013-08-02 14:10:00,78.5,61.0,29.83,WNW,296,8.0,14.0,55,0.00,BKN,,0.00,WeatherDisplay:10.37,2013-08-02 18:10:00,
2013-08-02 14:20:00,76.8,61.4,29.84,NW,313,8.0,15.0,59,0.00,BKN,,0.00,WeatherDisplay:10.37,2013-08-02 18:20:00,
2013-08-02 14:30:00,78.7,61.7,29.83,NW,318,6.0,9.0,56,0.00,BKN,,0.00,WeatherDisplay:10.37,2013-08-02 18:30:00,
2013-08-02 14:40:00,79.0,62.0,29.83,NW,318,5.0,10.0,56,0.00,BKN,,0.00,WeatherDisplay:10.37,2013-08-02 18:40:00,
2013-08-02 14:50:00,78.6,60.5,29.82,NW,318,5.0,10.0,54,0.00,BKN,,0.00,WeatherDisplay:10.37,2013-08-02 18:50:00,
2013-08-02 15:00:00,78.0,61.6,29.82,WNW,286,3.0,9.0,57,0.00,BKN,,0.00,WeatherDisplay:10.37,2013-08-02 19:00:00,
2013-08-02 15:10:00,79.3,61.3,29.82,WNW,287,13.0,14.0,54,0.00,BKN,,0.00,WeatherDisplay:10.37,2013-08-02 19:10:00,
2013-08-02 15:20:00,80.5,61.8,29.82,WNW,291,6.0,9.0,53,0.00,BKN,,0.00,WeatherDisplay:10.37,2013-08-02 19:20:00,
2013-08-02 15:30:00,80.7,59.7,29.82,NW,305,6.0,12.0,49,0.00,BKN,,0.00,WeatherDisplay:10.37,2013-08-02 19:30:00,
2013-08-02 15:40:00,80.4,60.6,29.81,WSW,252,5.0,12.0,51,0.00,BKN,,0.00,WeatherDisplay:10.37,2013-08-02 19:40:00,
2013-08-02 15:50:00,80.9,60.0,29.81,WNW,292,7.0,14.0,49,0.00,BKN,,0.00,WeatherDisplay:10.37,2013-08-02 19:50:00,
2013-08-02 16:00:00,80.8,60.4,29.81,NW,312,10.0,16.0,50,0.00,BKN,,0.00,WeatherDisplay:10.37,2013-08-02 20:00:00,
2013-08-02 16:10:00,81.3,59.7,29.81,NW,307,9.0,16.0,48,0.00,BKN,,0.00,WeatherDisplay:10.37,2013-08-02 20:10:00,
2013-08-02 16:20:00,80.7,60.9,29.81,WNW,289,3.0,10.0,51,0.00,BKN,,0.00,WeatherDisplay:10.37,2013-08-02 20:20:00,
2013-08-02 16:30:00,80.0,60.8,29.81,SW,226,3.0,9.0,52,0.00,BKN,,0.00,WeatherDisplay:10.37,2013-08-02 20:30:00,
2013-08-02 16:40:00,80.8,60.4,29.80,West,270,3.0,10.0,50,0.00,BKN,,0.00,WeatherDisplay:10.37,2013-08-02 20:40:00,
2013-08-02 16:50:00,81.2,60.8,29.80,WNW,284,8.0,12.0,50,0.00,BKN,,0.00,WeatherDisplay:10.37,2013-08-02 20:50:00,
2013-08-02 17:00:00,80.8,59.9,29.81,WSW,256,10.0,10.0,49,0.00,BKN,,0.00,WeatherDisplay:10.37,2013-08-02 21:00:00,
2013-08-02 17:10:00,81.2,61.4,29.80,West,269,6.0,8.0,51,0.00,BKN,,0.00,WeatherDisplay:10.37,2013-08-02 21:10:00,
2013-08-02 17:20:00,81.2,60.2,29.80,NW,309,3.0,9.0,49,0.00,BKN,,0.00,WeatherDisplay:10.37,2013-08-02 21:20:00,
2013-08-02 17:30:00,81.7,59.5,29.80,West,281,9.0,9.0,47,0.00,BKN,,0.00,WeatherDisplay:10.37,2013-08-02 21:30:00,
2013-08-02 17:40:00,80.5,60.2,29.80,WNW,302,9.0,10.0,50,0.00,BKN,,0.00,WeatherDisplay:10.37,2013-08-02 21:40:00,
2013-08-02 17:50:00,78.7,59.5,29.80,WNW,298,6.0,8.0,52,0.00,BKN,,0.00,WeatherDisplay:10.37,2013-08-02 21:50:00,
2013-08-02 18:00:00,78.4,59.3,29.80,WNW,294,3.0,8.0,52,0.00,BKN,,0.00,WeatherDisplay:10.37,2013-08-02 22:00:00,
2013-08-02 18:10:00,78.3,59.8,29.80,WNW,297,1.0,8.0,53,0.00,BKN,,0.00,WeatherDisplay:10.37,2013-08-02 22:10:00,
2013-08-02 18:20:00,78.2,59.1,29.80,West,275,3.0,9.0,52,0.00,BKN,,0.00,WeatherDisplay:10.37,2013-08-02 22:20:00,
2013-08-02 18:30:00,77.8,60.3,29.81,WNW,286,12.0,16.0,55,0.00,BKN,,0.00,WeatherDisplay:10.37,2013-08-02 22:30:00,
2013-08-02 18:40:00,75.9,60.0,29.82,NW,304,0.0,15.0,58,0.00,BKN,,0.00,WeatherDisplay:10.37,2013-08-02 22:40:00,
2013-08-02 18:50:00,74.9,59.6,29.82,WNW,299,9.0,10.0,59,0.00,BKN,,0.00,WeatherDisplay:10.37,2013-08-02 22:50:00,
2013-08-02 19:00:00,74.5,60.2,29.83,West,278,2.0,8.0,61,0.00,BKN,,0.00,WeatherDisplay:10.37,2013-08-02 23:00:00,
2013-08-02 19:10:00,74.0,59.7,29.83,WNW,303,8.0,9.0,61,0.00,BKN,,0.00,WeatherDisplay:10.37,2013-08-02 23:10:00,
2013-08-02 19:20:00,73.8,59.5,29.83,West,269,1.0,9.0,61,0.00,BKN,,0.00,WeatherDisplay:10.37,2013-08-02 23:20:00,
2013-08-02 19:30:00,73.7,59.4,29.83,WNW,302,5.0,6.0,61,0.00,BKN,,0.00,WeatherDisplay:10.37,2013-08-02 23:30:00,
2013-08-02 19:40:00,73.4,59.1,29.83,WNW,289,2.0,5.0,61,0.00,BKN,,0.00,WeatherDisplay:10.37,2013-08-02 23:40:00,
2013-08-02 19:50:00,73.6,58.9,29.83,West,270,3.0,8.0,60,0.00,BKN,,0.00,WeatherDisplay:10.37,2013-08-02 23:50:00,
2013-08-02 20:00:00,73.8,59.0,29.83,West,269,6.0,10.0,60,0.00,BKN,,0.00,WeatherDisplay:10.37,2013-08-03 00:00:00,
2013-08-02 20:10:00,73.5,59.2,29.83,West,267,0.0,10.0,61,0.00,BKN,,0.00,WeatherDisplay:10.37,2013-08-03 00:10:00,
2013-08-02 20:20:00,73.1,59.3,29.83,West,273,0.0,3.0,62,0.00,BKN,,0.00,WeatherDisplay:10.37,2013-08-03 00:20:00,
2013-08-02 20:30:00,72.9,59.1,29.83,West,273,0.0,0.0,62,0.00,BKN,,0.00,WeatherDisplay:10.37,2013-08-03 00:30:00,
2013-08-02 20:40:00,72.5,59.2,29.82,West,272,0.0,3.0,63,0.00,BKN,,0.00,WeatherDisplay:10.37,2013-08-03 00:40:00,
2013-08-02 20:50:00,72.4,59.5,29.82,West,269,0.0,3.0,64,0.00,BKN,,0.00,WeatherDisplay:10.37,2013-08-03 00:50:00,
2013-08-02 21:00:00,72.1,59.2,29.83,West,269,1.0,5.0,64,0.00,BKN,,0.00,WeatherDisplay:10.37,2013-08-03 01:00:00,
2013-08-02 21:10:00,72.0,58.7,29.84,West,266,2.0,5.0,63,0.00,BKN,,0.00,WeatherDisplay:10.37,2013-08-03 01:10:00,
2013-08-02 21:20:00,71.9,59.1,29.84,WSW,245,3.0,8.0,64,0.00,BKN,,0.00,WeatherDisplay:10.37,2013-08-03 01:20:00,
2013-08-02 21:30:00,72.1,58.4,29.83,SW,234,0.0,3.0,62,0.00,BKN,,0.00,WeatherDisplay:10.37,2013-08-03 01:30:00,
2013-08-02 21:40:00,71.9,59.1,29.84,SW,234,0.0,0.0,64,0.00,BKN,,0.00,WeatherDisplay:10.37,2013-08-03 01:40:00,
2013-08-02 21:50:00,71.4,58.6,29.84,SW,234,0.0,2.0,64,0.00,BKN,,0.00,WeatherDisplay:10.37,2013-08-03 01:50:00,
2013-08-02 22:00:00,71.1,58.3,29.84,SW,234,1.0,3.0,64,0.00,BKN,,0.00,WeatherDisplay:10.37,2013-08-03 02:00:00,
2013-08-02 22:10:00,70.7,58.4,29.85,SW,235,0.0,3.0,65,0.00,BKN,,0.00,WeatherDisplay:10.37,2013-08-03 02:10:00,
2013-08-02 22:20:00,69.8,59.1,29.85,SW,235,0.0,2.0,69,0.00,BKN,,0.00,WeatherDisplay:10.37,2013-08-03 02:20:00,
2013-08-02 22:30:00,68.1,58.7,29.86,SW,235,0.0,3.0,72,0.00,BKN,,0.00,WeatherDisplay:10.37,2013-08-03 02:30:00,
2013-08-02 22:40:00,67.6,58.2,29.86,SW,235,0.0,0.0,72,0.00,BKN,,0.00,WeatherDisplay:10.37,2013-08-03 02:40:00,
2013-08-02 22:50:00,66.9,58.4,29.86,SW,235,0.0,0.0,74,0.00,BKN,,0.00,WeatherDisplay:10.37,2013-08-03 02:50:00,
2013-08-02 23:00:00,66.0,58.3,29.86,SW,235,0.0,0.0,76,0.00,BKN,,0.00,WeatherDisplay:10.37,2013-08-03 03:00:00,
2013-08-02 23:10:00,65.4,58.4,29.86,SW,235,0.0,0.0,78,0.00,SCT,,0.00,WeatherDisplay:10.37,2013-08-03 03:10:00,
2013-08-02 23:20:00,64.8,58.4,29.86,SW,235,0.0,0.0,80,0.00,SCT,,0.00,WeatherDisplay:10.37,2013-08-03 03:20:00,
2013-08-02 23:30:00,64.5,58.9,29.85,SW,235,0.0,0.0,82,0.00,SCT,,0.00,WeatherDisplay:10.37,2013-08-03 03:30:00,
2013-08-02 23:40:00,64.4,59.1,29.85,SW,235,0.0,0.0,83,0.00,SCT,,0.00,WeatherDisplay:10.37,2013-08-03 03:40:00,
2013-08-02 23:50:00,63.6,59.1,29.86,SW,235,0.0,2.0,85,0.00,SCT,,0.00,WeatherDisplay:10.37,2013-08-03 03:50:00,